This demonstration page uses our WeatherBlox Daily Observations layout. Learn more.

Left ArrowRight Arrow

39.51506, -84.39828

Hourly Observations for May 21, 2019

Temp ( °F °C ) Dew Point ( °F °C ) Humidity (%) Winds ( mph kmh ) Pressure ( in mb ) Visibility ( mi km ) Precip ( " mm )
12:15 am 00:15 Clear 50 10 47 8.1 88 88 NNE 5 7 30.12 1020 10 16 0.00 0.00
12:35 am 00:35 Clear 50 9.9 46 7.6 86 86 NNE 6 9 30.12 1020 10 16 0.00 0.00
12:55 am 00:55 Clear 50 9.9 45 7 82 82 NE 8 13 30.12 1020 10 16 0.00 0.00
1:15 am 01:15 Clear 49 9.5 44 6.8 83 83 NNE 7 11 30.11 1020 10 16 0.00 0.00
1:35 am 01:35 Clear 49 9.2 44 6.7 85 85 NE 6 9 30.11 1020 10 16 0.00 0.00
1:55 am 01:55 Clear 48 8.9 44 6.6 86 86 N 7 11 30.12 1020 10 16 0.00 0.00
2:15 am 02:15 Clear 47 8.6 43 6.1 84 84 NNE 5 7 30.12 1020 10 16 0.00 0.00
2:35 am 02:35 Clear 47 8.4 43 5.9 84 84 NNE 6 9 30.11 1020 10 16 0.00 0.00
2:55 am 02:55 Clear 47 8.1 43 5.9 86 86 NE 7 11 30.10 1019 10 16 0.00 0.00
3:15 am 03:15 Clear 47 8.3 43 6 86 86 NNE 3 6 30.13 1020 10 16 0.00 0.00
3:35 am 03:35 Clear 47 8.3 43 6.3 87 87 NE 7 11 30.12 1020 10 16 0.00 0.00
3:55 am 03:55 Clear 47 8.2 43 6.2 87 87 NE 6 9 30.12 1020 10 16 0.00 0.00
4:15 am 04:15 Clear 47 8.4 44 6.4 87 87 NNE 7 11 30.13 1020 10 16 0.00 0.00
4:35 am 04:35 Clear 48 8.7 44 6.7 87 87 ENE 7 11 30.12 1020 10 16 0.00 0.00
4:55 am 04:55 Clear 48 8.8 44 6.6 86 86 E 6 9 30.11 1020 10 16 0.00 0.00
5:15 am 05:15 Clear 48 8.9 44 6.5 85 85 ENE 6 9 30.11 1020 10 16 0.00 0.00
5:35 am 05:35 Clear 48 8.9 43 6.3 84 84 NE 5 7 30.12 1020 10 16 0.00 0.00
5:55 am 05:55 Clear 48 8.9 43 6.3 84 84 ENE 5 7 30.13 1020 10 16 0.00 0.00
6:15 am 06:15 Clear 49 9.2 43 6.1 81 81 ENE 7 11 30.12 1020 10 16 0.00 0.00
6:35 am 06:35 Sunny 48 9 43 6.2 83 83 ENE 5 7 30.13 1020 10 16 0.00 0.00
6:55 am 06:55 Sunny 49 9.2 44 6.4 83 83 NE 3 6 30.15 1021 10 16 0.00 0.00
7:15 am 07:15 Sunny 49 9.3 44 6.6 83 83 N 3 6 30.17 1022 10 16 0.00 0.00
7:35 am 07:35 Sunny 49 9.5 44 6.6 82 82 NE 5 7 30.17 1022 10 16 0.00 0.00
7:55 am 07:55 Sunny 50 9.9 44 6.9 82 82 ENE 7 11 30.17 1022 10 16 0.00 0.00
8:15 am 08:15 Sunny 50 9.9 45 7.1 83 83 ENE 6 9 30.17 1022 10 16 0.00 0.00
8:35 am 08:35 Sunny 51 10.3 45 7.4 82 82 ENE 8 13 30.17 1022 10 16 0.00 0.00
8:55 am 08:55 Sunny 51 10.7 45 7.2 79 79 ENE 12 19 30.17 1022 10 16 0.00 0.00
9:15 am 09:15 Sunny 52 11 45 7.3 78 78 E 12 19 30.18 1022 10 16 0.00 0.00
9:35 am 09:35 Sunny 53 11.5 46 7.8 78 78 E 10 17 30.18 1022 10 16 0.00 0.00
9:55 am 09:55 Sunny 54 12.2 46 7.6 74 74 E 14 22 30.16 1021 10 16 0.00 0.00
10:15 am 10:15 Sunny 55 12.7 45 7.1 69 69 ESE 17 28 30.16 1021 10 16 0.00 0.00
10:35 am 10:35 Partly Cloudy 55 12.7 45 7.3 70 70 ESE 15 24 30.15 1021 10 16 0.00 0.00
10:55 am 10:55 Partly Cloudy 56 13.6 46 7.7 68 68 E 15 24 30.14 1021 10 16 0.00 0.00
11:15 am 11:15 Sunny 58 14.3 46 7.9 66 66 E 14 22 30.13 1020 10 16 0.00 0.00
11:35 am 11:35 Mostly Cloudy 58 14.5 44 6.9 61 61 ESE 14 22 30.14 1021 10 16 0.00 0.00
11:55 am 11:55 Mostly Cloudy 59 15.2 45 7 58 58 SSE 13 20 30.14 1021 10 16 0.00 0.00
12:15 pm 12:15 Partly Cloudy 61 16 46 7.7 58 58 ESE 12 19 30.13 1020 10 16 0.00 0.00
12:35 pm 12:35 Mostly Cloudy 62 16.6 46 7.5 55 55 ESE 13 20 30.12 1020 10 16 0.00 0.00
12:55 pm 12:55 Mostly Cloudy 61 16 45 7.3 57 57 ESE 8 13 30.12 1020 10 16 0.00 0.00
1:15 pm 13:15 Sunny 62 16.4 46 7.9 57 57 E 6 9 30.11 1020 10 16 0.00 0.00
1:35 pm 13:35 Sunny 62 16.6 47 8.2 58 58 E 10 17 30.11 1020 10 16 0.00 0.00
1:55 pm 13:55 Mostly Cloudy 64 17.8 48 8.7 55 55 E 13 20 30.09 1019 10 16 0.00 0.00
2:15 pm 14:15 Mostly Cloudy 63 17 47 8.5 58 58 E 9 15 30.08 1019 10 16 0.00 0.00
2:35 pm 14:35 Sunny 64 17.6 47 8.4 55 55 E 12 19 30.09 1019 10 16 0.00 0.00
2:55 pm 14:55 Partly Cloudy 64 17.6 47 8.6 56 56 E 10 17 30.08 1019 10 16 0.00 0.00
3:15 pm 15:15 Cloudy 63 17.1 47 8.1 56 56 E 12 19 30.08 1019 10 16 0.00 0.00
3:35 pm 15:35 Cloudy 62 16.8 47 8.1 57 57 E 13 20 30.07 1018 10 16 0.00 0.00
3:55 pm 15:55 Cloudy 64 17.6 47 8.1 54 54 E 9 15 30.07 1018 10 16 0.00 0.00
4:15 pm 16:15 Cloudy 64 18 46 7.9 52 52 E 12 19 30.06 1018 10 16 0.00 0.00
4:35 pm 16:35 Cloudy 65 18.2 45 7.2 49 49 E 12 19 30.06 1018 10 16 0.00 0.00
4:55 pm 16:55 Mostly Cloudy 65 18.2 45 7.4 50 50 E 13 20 30.06 1018 10 16 0.00 0.00
5:15 pm 17:15 Partly Cloudy 66 18.7 45 7.3 48 48 E 13 20 30.06 1018 10 16 0.00 0.00
5:35 pm 17:35 Mostly Cloudy 65 18.2 44 6.9 48 48 E 13 20 30.06 1018 10 16 0.00 0.00
5:55 pm 17:55 Cloudy 65 18.2 44 6.6 47 47 E 14 22 30.06 1018 10 16 0.00 0.00
6:15 pm 18:15 Cloudy 64 18 44 6.9 48 48 E 13 20 30.06 1018 10 16 0.00 0.00
6:35 pm 18:35 Cloudy 65 18.1 44 6.6 47 47 E 16 26 30.05 1018 10 16 0.00 0.00
6:55 pm 18:55 Cloudy 64 17.8 44 6.8 49 49 E 12 19 30.05 1018 10 16 0.00 0.00
7:15 pm 19:15 Partly Cloudy 63 17.3 45 7 51 51 E 12 19 30.04 1017 10 16 0.00 0.00
7:35 pm 19:35 Sunny 63 17 46 7.9 55 55 E 8 13 30.04 1017 10 16 0.00 0.00
7:55 pm 19:55 Sunny 63 17 46 8 56 56 E 10 17 30.03 1017 10 16 0.00 0.00
8:15 pm 20:15 Sunny 61 16.3 46 7.6 57 57 E 8 13 30.03 1017 10 16 0.00 0.00
8:35 pm 20:35 Sunny 61 16 46 7.6 58 58 E 10 17 30.04 1017 10 16 0.00 0.00
8:55 pm 20:55 Clear 60 15.7 46 7.5 58 58 E 8 13 30.03 1017 10 16 0.00 0.00
9:15 pm 21:15 Clear 60 15.4 45 7.3 59 59 E 9 15 30.04 1017 10 16 0.00 0.00
9:35 pm 21:35 Clear 60 15.4 45 7.3 59 59 E 8 13 30.04 1017 10 16 0.00 0.00
9:55 pm 21:55 Clear 60 15.3 45 7.3 59 59 E 8 13 30.04 1017 10 16 0.00 0.00
10:15 pm 22:15 Clear 59 14.8 45 7.3 61 61 E 7 11 30.05 1018 10 16 0.00 0.00
10:35 pm 22:35 Clear 58 14.6 45 7.2 61 61 E 7 11 30.06 1018 10 16 0.00 0.00
10:55 pm 22:55 Clear 57 14.1 45 7.3 64 64 E 6 9 30.06 1018 10 16 0.00 0.00
11:15 pm 23:15 Clear 57 13.9 46 7.6 66 66 E 7 11 30.06 1018 10 16 0.00 0.00
11:35 pm 23:35 Clear 56 13.5 46 7.7 68 68 E 6 9 30.06 1018 10 16 0.00 0.00
11:55 pm 23:55 Clear 56 13.5 46 7.8 69 69 E 7 11 30.05 1018 10 16 0.00 0.00

Powered by AerisWeather